Crest Hill, IL

3:03 PM CST on December 02, 2016 (GMT -0600)
Lewis University

Weather History for KLOT - September, 2013

Change the Weather History Date:

Sunday, September 8, 2013

  Actual Average Record
Temperature  
Mean Temperature 76 °F 68 °F  
Max Temperature 81 °F 79 °F 94 °F (2002)
Min Temperature 70 °F 58 °F 49 °F (2010)
Degree Days  
Heating Degree Days 0 1  
Month to date heating degree days 0 8  
Since 1 July heating degree days 11 16  
Cooling Degree Days 11 4  
Month to date cooling degree days 52 41  
Year to date cooling degree days 830 794  
Growing Degree Days 25 (Base 50)    
Moisture  
Dew Point 66 °F    
Average Humidity 76    
Maximum Humidity 86    
Minimum Humidity 64    
Precipitation  
Precipitation T in 0.11 in 1.09 in (2008)
Month to date precipitation 0.62 1.00  
Year to date precipitation 29.94 28.82  
Sea Level Pressure  
Sea Level Pressure 29.98 in    
Wind  
Wind Speed 9 mph (ENE)    
Max Wind Speed 18 mph    
Max Gust Speed 24 mph    
Visibility 10 miles    
Events Rain , Thunderstorm    
T = Trace of Precipitation, MM = Missing Value Source: NWS Daily Summary

Daily Weather History Graph

Daily Weather History Graph

Search for Another Location

Airport or City:

Trip Planner

Search our weather history database for the weather conditions in past years. The results will help you decide how hot, cold, wet, or windy it might be!

Date:

Astronomy

Sep. 08, 2013 Rise Set
Actual Time 6:25 AM CDT 7:13 PM CDT
Civil Twilight 5:57 AM CDT 7:41 PM CDT
Nautical Twilight 5:24 AM CDT 8:14 PM CDT
Astronomical Twilight 4:49 AM CDT 8:49 PM CDT
Moon 9:46 AM CDT (9/8) 8:45 PM CDT (9/8)
Length of Visible Light 13h 43m
Length of Day
12h 47m
Waxing Crescent, 11% of the Moon is Illuminated
Sep 8
Waxing Crescent
Sep 12
First Quarter
Sep 19
Full
Sep 26
Last Quarter
Oct 4
New

Hourly Weather History & Observations

Time (CDT) Temp. Heat Index Dew Point Humidity Pressure Visibility Wind Dir Wind Speed Gust Speed Precip Events Conditions
12:15 AM 72.5 °F - 65.1 °F 78% 29.95 in 10.0 mi Calm Calm - N/A   Overcast
12:35 AM 72.0 °F - 65.3 °F 79% 29.95 in 10.0 mi South 3.5 mph - N/A   Overcast
12:55 AM 71.2 °F - 66.2 °F 84% 29.96 in 7.0 mi ENE 5.8 mph 9.2 mph N/A Rain Light Rain
1:15 AM 71.2 °F - 65.5 °F 82% 29.96 in 10.0 mi NE 5.8 mph - N/A   Mostly Cloudy
1:35 AM 72.3 °F - 65.3 °F 78% 29.96 in 10.0 mi NNE 6.9 mph - N/A   Overcast
1:55 AM 72.5 °F - 66.2 °F 81% 29.96 in 10.0 mi NE 5.8 mph - N/A   Overcast
2:15 AM 72.5 °F - 65.5 °F 79% 29.96 in 10.0 mi NE 8.1 mph - N/A Thunderstorm Mostly Cloudy
2:35 AM 74.3 °F - 64.8 °F 72% 29.96 in 10.0 mi ENE 17.3 mph 21.9 mph N/A   Mostly Cloudy
2:55 AM 72.7 °F - 64.6 °F 76% 29.96 in 10.0 mi NE 11.5 mph - N/A   Scattered Clouds
3:15 AM 72.1 °F - 64.8 °F 78% 29.96 in 10.0 mi ENE 11.5 mph - N/A   Scattered Clouds
3:35 AM 71.4 °F - 64.9 °F 80% 29.96 in 10.0 mi NE 9.2 mph - N/A   Clear
3:55 AM 71.1 °F - 65.7 °F 83% 29.97 in 10.0 mi NE 15.0 mph 19.6 mph N/A   Clear
4:15 AM 70.7 °F - 66.2 °F 86% 29.97 in 10.0 mi ENE 13.8 mph 19.6 mph N/A   Mostly Cloudy
4:35 AM 71.1 °F - 66.6 °F 86% 29.98 in 10.0 mi ENE 10.4 mph - N/A   Overcast
4:55 AM 71.4 °F - 66.2 °F 84% 29.98 in 10.0 mi NE 12.7 mph 19.6 mph N/A   Overcast
5:15 AM 70.9 °F - 65.5 °F 83% 29.98 in 10.0 mi ENE 16.1 mph 19.6 mph N/A   Overcast
5:35 AM 70.7 °F - 65.3 °F 83% 29.98 in 10.0 mi ENE 18.4 mph - N/A   Overcast
5:55 AM 70.2 °F - 65.1 °F 84% 29.98 in 10.0 mi ENE 16.1 mph 20.7 mph N/A   Mostly Cloudy
6:15 AM 70.0 °F - 64.9 °F 84% 29.99 in 10.0 mi ENE 12.7 mph - N/A   Mostly Cloudy
6:35 AM 70.3 °F - 65.3 °F 84% 30.00 in 5.0 mi ENE 12.7 mph - N/A   Haze
6:55 AM 70.7 °F - 65.3 °F 83% 30.01 in 7.0 mi ENE 10.4 mph 16.1 mph N/A   Overcast
7:15 AM 70.7 °F - 65.5 °F 83% 30.01 in 7.0 mi ENE 11.5 mph - N/A   Overcast
7:35 AM 71.1 °F - 65.7 °F 83% 30.00 in 7.0 mi ENE 15.0 mph - N/A   Overcast
7:55 AM 71.6 °F - 65.5 °F 81% 30.00 in 7.0 mi ENE 16.1 mph 24.2 mph N/A   Overcast
8:15 AM 72.5 °F - 65.7 °F 79% 30.01 in 10.0 mi ENE 8.1 mph 20.7 mph N/A   Mostly Cloudy
8:35 AM 72.5 °F - 65.8 °F 80% 30.01 in 10.0 mi ENE 9.2 mph 16.1 mph N/A   Overcast
8:55 AM 72.3 °F - 66.0 °F 80% 30.01 in 10.0 mi ENE 11.5 mph - N/A   Overcast
9:15 AM 72.5 °F - 66.2 °F 81% 30.02 in 10.0 mi East 9.2 mph - N/A   Overcast
9:35 AM 73.6 °F - 66.4 °F 78% 30.02 in 10.0 mi East 10.4 mph - N/A   Overcast
9:55 AM 74.1 °F - 66.7 °F 78% 30.01 in 10.0 mi East 11.5 mph - N/A   Overcast
10:15 AM 74.8 °F - 66.6 °F 75% 30.01 in 10.0 mi ENE 11.5 mph - N/A   Overcast
10:35 AM 75.7 °F - 66.6 °F 73% 30.01 in 10.0 mi East 11.5 mph - N/A   Mostly Cloudy
10:55 AM 76.3 °F - 66.7 °F 72% 30.01 in 10.0 mi NE 10.4 mph - N/A   Scattered Clouds
11:15 AM 77.5 °F - 66.9 °F 70% 30.01 in 10.0 mi NE 9.2 mph - N/A   Mostly Cloudy
11:35 AM 77.4 °F - 67.1 °F 71% 30.01 in 10.0 mi ENE 6.9 mph - N/A   Mostly Cloudy
11:55 AM 78.1 °F - 66.7 °F 68% 30.01 in 10.0 mi NE 9.2 mph - N/A   Mostly Cloudy
12:15 PM 77.5 °F - 66.2 °F 68% 30.01 in 10.0 mi ENE 8.1 mph - N/A   Overcast
12:35 PM 77.7 °F - 66.4 °F 68% 30.01 in 10.0 mi ENE 6.9 mph - N/A   Overcast
12:55 PM 78.1 °F - 66.7 °F 68% 30.01 in 10.0 mi ENE 8.1 mph - N/A   Overcast
1:15 PM 78.8 °F - 66.7 °F 66% 30.01 in 10.0 mi ENE 9.2 mph - N/A   Mostly Cloudy
1:35 PM 79.0 °F - 66.6 °F 66% 30.01 in 10.0 mi ENE 10.4 mph - N/A   Overcast
1:55 PM 80.1 °F 82.3 °F 67.1 °F 64% 30.00 in 10.0 mi ENE 10.4 mph - N/A   Overcast
2:15 PM 79.7 °F - 67.3 °F 66% 29.99 in 10.0 mi ENE 9.2 mph - N/A   Mostly Cloudy
2:35 PM 79.5 °F - 67.1 °F 66% 29.99 in 10.0 mi ENE 12.7 mph - N/A   Mostly Cloudy
2:55 PM 79.2 °F - 67.1 °F 66% 29.98 in 10.0 mi NE 10.4 mph 16.1 mph N/A   Overcast
3:15 PM 79.5 °F - 66.7 °F 65% 29.98 in 10.0 mi NE 11.5 mph - N/A   Mostly Cloudy
3:35 PM 78.1 °F - 66.2 °F 67% 29.98 in 10.0 mi NE 13.8 mph - N/A   Mostly Cloudy
3:55 PM 78.6 °F - 66.6 °F 66% 29.98 in 10.0 mi ENE 13.8 mph - N/A   Overcast
4:15 PM 78.3 °F - 66.2 °F 66% 29.96 in 10.0 mi ENE 12.7 mph - N/A   Scattered Clouds
4:35 PM 78.6 °F - 66.6 °F 66% 29.96 in 10.0 mi ENE 10.4 mph - N/A   Clear
4:55 PM 77.7 °F - 66.2 °F 68% 29.96 in 10.0 mi ENE 10.4 mph - N/A   Clear
5:15 PM 77.4 °F - 65.8 °F 67% 29.96 in 10.0 mi ENE 15.0 mph - N/A   Clear
5:35 PM 76.6 °F - 65.5 °F 68% 29.96 in 10.0 mi ENE 12.7 mph - N/A   Clear
5:55 PM 76.1 °F - 65.3 °F 69% 29.96 in 10.0 mi ENE 12.7 mph - N/A   Clear
6:15 PM 75.6 °F - 64.9 °F 69% 29.96 in 10.0 mi ENE 13.8 mph 18.4 mph N/A   Clear
6:35 PM 74.8 °F - 64.8 °F 71% 29.96 in 10.0 mi ENE 11.5 mph - N/A   Clear
6:55 PM 74.3 °F - 64.8 °F 72% 29.96 in 10.0 mi East 10.4 mph - N/A   Clear
7:15 PM 73.4 °F - 64.8 °F 74% 29.96 in 10.0 mi East 9.2 mph - N/A   Clear
7:35 PM 73.0 °F - 64.8 °F 75% 29.96 in 10.0 mi East 9.2 mph - N/A   Clear
7:55 PM 72.9 °F - 65.1 °F 77% 29.96 in 10.0 mi East 8.1 mph - N/A   Clear
8:15 PM 72.5 °F - 65.3 °F 78% 29.96 in 10.0 mi East 8.1 mph - N/A   Clear
8:35 PM 72.5 °F - 65.3 °F 78% 29.96 in 10.0 mi ESE 10.4 mph - N/A   Clear
8:55 PM 72.3 °F - 64.8 °F 77% 29.96 in 10.0 mi ESE 11.5 mph - N/A   Clear
9:15 PM 71.6 °F - 64.6 °F 78% 29.96 in 10.0 mi ESE 8.1 mph - N/A   Clear
9:35 PM 71.6 °F - 64.6 °F 78% 29.96 in 7.0 mi ESE 9.2 mph - N/A   Clear
9:55 PM 71.2 °F - 64.6 °F 79% 29.97 in 10.0 mi ESE 8.1 mph - N/A   Clear
10:15 PM 70.9 °F - 64.6 °F 80% 29.97 in 10.0 mi ESE 5.8 mph - N/A   Clear
10:35 PM 70.3 °F - 64.4 °F 81% 29.98 in 10.0 mi SE 4.6 mph - N/A   Clear
10:55 PM 70.2 °F - 64.4 °F 82% 29.98 in 7.0 mi ESE 5.8 mph - N/A   Clear
11:15 PM 70.0 °F - 64.4 °F 82% 29.97 in 7.0 mi ESE 8.1 mph - N/A   Clear
11:35 PM 70.0 °F - 64.4 °F 82% 29.98 in 7.0 mi SE 6.9 mph - N/A   Clear
11:55 PM 69.4 °F - 64.4 °F 84% 29.97 in 7.0 mi SE 6.9 mph - N/A   Clear